Temp
63 59 63 62 60 59 59 59 60 62 63 59 60 62 64 64 63 58 50 58 60 70 66 60 58 56 55 51 53 52 41 38 41 40 46 49 49 54 56 54 56 59 59 64 63
60 59 58 60 59 60 60 59 60 60 62 63 59 61 63 63 56 52 61 66 69 69 58 55 51 53 47 48 48 45 39 41 45 46 45 47 48 49 50 51 52 55 61 63 62
59 57 57 57 59 59 59 60 61 61 61 62 62 60 61 60 52 51 65 68 70 65 59 56 54 51 45 47 44 43 39 43 46 48 47 46 46 50 48 46 51 53 57 58 59
58 56 57 57 59 59 57 59 61 61 61 62 62 61 61 57 41 57 67 68 68 60 58 54 50 44 41 40 44 41 44 44 46 47 45 44 47 46 47 51 56 56 56 56 56
59 59 58 58 59 60 61 60 60 61 61 62 62 59 54 47 48 61 67 67 61 58 53 50 45 43 38 40 42 40 41 44 46 45 45 46 44 45 45 52 55 54 54 53 54
60 59 59 59 59 59 60 60 60 60 61 62 60 59 53 44 55 60 61 61 59 56 52 51 47 47 41 40 40 41 41 42 44 44 45 43 44 44 48 51 51 51 52 53 53
59 58 57 57 58 58 59 60 60 61 61 61 58 56 51 45 56 57 59 58 59 57 51 53 52 47 45 39 44 42 38 40 42 43 42 45 39 39 50 49 49 51 52 53 54
59 59 58 56 57 58 58 58 59 59 60 60 59 53 44 55 55 53 60 56 58 58 55 54 53 47 45 45 40 36 36 34 42 43 45 44 37 46 50 47 48 50 52 53 56
59 58 58 57 56 58 58 59 60 60 60 60 53 50 42 55 51 56 60 54 55 55 56 58 52 45 44 35 32 33 29 30 35 43 42 41 37 44 50 50 48 50 51 52 53
58 58 57 56 57 56 58 59 59 57 57 57 54 45 47 45 50 55 58 56 51 50 48 46 42 36 36 31 28 28 28 32 32 39 41 37 36 43 47 47 47 48 49 50 50
58 58 58 58 57 56 52 49 44 42 47 42 44 44 46 50 56 53 56 53 50 45 36 41 32 27 33 35 34 34 33 31 36 41 37 36 37 42 47 47 46 46 46 47 48
58 58 58 58 57 57 50 43 44 46 36 46 47 46 49 51 45 50 56 44 42 34 38 34 28 36 38 36 34 33 30 30 36 40 38 38 38 44 46 45 45 46 46 46 47
58 57 57 58 57 52 48 46 51 50 36 40 45 44 45 50 43 45 51 45 39 35 35 31 36 39 38 35 32 31 30 31 33 39 42 39 35 37 44 45 45 47 47 47 46
58 58 56 57 51 48 44 50 50 50 32 34 40 43 48 49 41 51 51 46 40 35 35 34 39 37 35 33 35 30 37 37 36 35 29 41 27 35 39 41 44 46 47 47 47
57 57 57 54 45 43 47 48 48 45 17 37 41 53 49 43 43 44 50 46 36 36 36 34 35 35 34 35 37 35 41 37 36 34 32 34 30 34 40 38 39 43 47 48 48
57 57 55 48 44 46 46 45 44 26 19 33 41 39 40 41 41 43 44 46 43 37 36 35 41 39 38 40 40 42 37 37 36 35 27 32 31 30 34 35 38 43 48 48 49
56 56 51 50 42 46 45 39 25 22 35 30 34 37 36 35 36 37 35 33 31 24 25 34 35 39 41 36 39 38 34 22 21 25 23 34 32 33 37 39 40 44 46 48 48
55 53 50 50 46 44 41 32 22 32 30 36 35 35 33 35 34 34 34 30 34 33 27 24 24 36 40 38 38 37 36 25 18 21 25 35 27 32 41 42 44 46 45 46 47
53 42 43 45 46 42 37 28 28 33 34 33 34 30 30 34 34 33 30 31 37 35 28 32 26 40 40 42 43 36 33 39 31 32 28 31 33 38 41 38 41 42 43 43 44
40 39 42 46 44 41 34 33 31 37 37 36 30 31 27 31 31 30 31 39 39 40 39 37 29 37 41 44 43 39 42 32 32 23 22 29 28 28 32 34 37 40 40 43 44
39 39 47 45 44 38 30 33 35 40 39 37 32 32 32 34 34 31 33 40 43 43 44 39 34 33 39 37 36 37 35 35 35 32 26 24 26 35 34 37 38 40 43 43 43
37 33 47 44 34 28 26 33 40 37 40 39 37 38 36 36 37 36 35 39 44 43 38 41 37 30 34 41 44 40 37 37 30 29 30 29 29 42 42 41 42 42 44 46 46
34 34 43 43 29 25 32 35 36 38 38 38 37 39 39 35 32 35 37 44 44 42 39 40 32 26 31 36 39 37 39 39 38 34 30 27 30 43 44 43 44 44 44 45 46
35 31 35 35 32 32 29 32 35 40 38 39 38 39 37 35 36 33 36 41 43 42 47 44 33 30 26 32 35 32 36 36 34 28 30 31 32 36 40 41 43 43 43 44 44
33 31 32 26 32 29 31 32 33 34 38 40 37 36 33 31 32 32 34 37 41 44 40 38 29 27 32 34 35 34 35 34 30 33 30 33 32 37 40 41 41 43 43 43 43
34 32 31 30 31 30 33 31 33 34 35 36 35 37 36 33 35 32 33 33 33 37 34 36 28 30 30 35 34 32 36 35 35 34 33 33 34 41 41 42 41 42 42 42 42
35 36 36 32 30 29 31 33 36 35 38 38 36 34 34 37 39 39 39 37 36 33 34 33 30 28 24 30 32 30 34 36 36 37 35 32 38 39 39 40 41 41 42 42 42
MSLP
1012.53 1011.83 1012.24 1012.81 1013.06 1013.34 1013.70 1013.93 1014.06 1013.99 1013.89 1014.33 1014.65 1014.09 1014.03 1014.80 1015.32 1016.03 1016.27 1016.09 1015.95 1015.75 1016.09 1016.58 1016.57 1017.05 1017.28 1018.27 1018.72 1019.06 1019.91 1020.26 1020.04 1020.00 1019.44 1019.28 1018.97 1018.70 1018.59 1018.27 1017.85 1017.25 1016.91 1016.41 1016.37
1012.40 1011.86 1012.16 1012.43 1012.66 1012.96 1013.29 1013.69 1013.89 1014.01 1014.09 1013.99 1014.22 1014.30 1014.06 1014.94 1015.36 1015.81 1015.64 1015.51 1015.58 1015.95 1016.49 1016.85 1017.33 1017.46 1018.56 1019.17 1019.57 1019.88 1020.43 1020.18 1020.15 1020.00 1019.86 1019.82 1019.59 1019.42 1019.07 1018.61 1018.19 1017.61 1016.86 1016.42 1016.37
1012.91 1012.67 1012.39 1012.51 1012.58 1012.85 1013.09 1013.33 1013.41 1013.77 1013.89 1014.12 1014.18 1014.31 1014.24 1014.73 1015.22 1015.47 1015.32 1015.35 1015.47 1016.21 1016.68 1017.05 1017.44 1018.00 1019.28 1019.86 1020.42 1020.62 1020.69 1020.73 1020.49 1020.33 1020.20 1020.12 1019.94 1019.69 1019.17 1018.57 1017.91 1017.36 1016.98 1016.92 1016.71
1012.82 1013.00 1012.74 1012.79 1012.66 1012.72 1013.07 1013.15 1013.23 1013.53 1013.75 1013.93 1014.14 1013.89 1014.46 1015.19 1015.92 1015.39 1015.14 1015.38 1015.87 1016.45 1016.94 1017.50 1017.96 1018.76 1019.85 1020.49 1020.86 1020.97 1020.93 1021.01 1020.81 1020.71 1020.67 1020.43 1020.23 1019.71 1019.09 1018.01 1017.36 1017.45 1017.29 1017.31 1016.96
1012.81 1012.62 1012.73 1012.42 1012.56 1012.64 1012.67 1012.71 1013.02 1013.34 1013.67 1013.72 1013.72 1014.15 1014.81 1015.82 1016.22 1015.35 1015.22 1015.60 1016.18 1016.65 1017.23 1017.74 1018.39 1019.19 1020.20 1020.84 1021.08 1021.26 1021.41 1021.21 1020.91 1020.78 1020.77 1020.49 1020.06 1019.63 1018.65 1017.27 1017.45 1017.30 1017.31 1017.18 1016.88
1012.89 1012.89 1012.85 1012.70 1012.82 1012.74 1012.47 1012.67 1013.03 1013.39 1013.68 1013.77 1013.75 1014.61 1014.81 1015.95 1016.41 1015.98 1015.99 1016.00 1016.55 1016.90 1017.55 1017.91 1018.70 1019.25 1020.38 1021.23 1021.38 1021.67 1021.54 1021.27 1020.81 1020.51 1020.58 1020.26 1019.65 1019.58 1017.49 1017.16 1017.00 1017.06 1016.79 1016.55 1016.37
1013.20 1012.87 1012.84 1012.78 1012.85 1012.67 1012.49 1012.66 1013.08 1013.51 1013.90 1014.17 1014.61 1014.34 1015.10 1016.77 1016.87 1016.64 1016.47 1016.58 1016.97 1017.18 1017.81 1018.30 1018.67 1019.27 1020.34 1021.16 1021.42 1021.60 1021.54 1021.01 1020.74 1020.44 1020.17 1019.98 1019.41 1018.54 1017.07 1017.34 1016.90 1016.46 1016.25 1015.99 1015.54
1013.80 1013.18 1012.80 1012.93 1013.01 1013.00 1013.02 1012.98 1013.17 1013.62 1014.06 1014.25 1014.89 1015.25 1016.23 1016.91 1017.21 1017.63 1016.54 1017.12 1017.51 1017.65 1017.99 1018.50 1018.85 1019.61 1020.46 1021.26 1021.75 1022.00 1021.85 1021.47 1020.85 1020.55 1020.04 1019.87 1018.47 1017.44 1017.21 1017.08 1016.61 1016.18 1015.68 1015.27 1014.65
1014.29 1013.83 1013.55 1013.41 1013.44 1013.29 1013.19 1012.67 1012.83 1013.53 1014.07 1014.64 1015.37 1015.81 1017.09 1017.20 1017.81 1017.45 1017.02 1017.49 1018.12 1018.30 1018.47 1018.72 1019.20 1020.22 1020.94 1021.52 1022.26 1022.49 1022.49 1022.16 1021.24 1020.53 1020.17 1020.01 1018.36 1017.80 1016.92 1016.46 1015.71 1015.68 1015.24 1014.58 1014.05
1014.65 1014.20 1014.07 1014.19 1013.90 1013.88 1013.71 1013.32 1014.05 1014.10 1014.85 1015.15 1016.05 1017.10 1017.62 1017.60 1017.76 1017.58 1017.77 1017.82 1018.47 1018.91 1019.12 1019.54 1020.34 1021.06 1021.60 1022.02 1022.58 1022.92 1023.01 1022.44 1021.72 1020.64 1020.03 1019.54 1017.47 1017.49 1016.94 1016.05 1015.19 1014.80 1014.54 1014.04 1013.55
1015.04 1014.63 1014.29 1014.46 1014.48 1014.29 1014.11 1014.08 1014.98 1015.88 1016.13 1016.58 1016.82 1017.39 1017.59 1018.24 1018.25 1018.23 1018.24 1018.50 1019.06 1019.68 1020.50 1020.84 1021.47 1022.07 1022.23 1022.32 1022.46 1022.71 1022.59 1022.20 1021.26 1020.25 1019.92 1019.00 1017.21 1016.37 1015.88 1015.51 1014.51 1014.01 1013.84 1013.55 1013.04
1015.19 1015.14 1014.97 1014.83 1014.73 1014.57 1014.76 1015.54 1016.53 1017.17 1017.56 1017.52 1017.55 1017.89 1018.52 1018.59 1018.73 1018.74 1018.59 1019.18 1019.91 1020.69 1021.15 1021.56 1021.80 1022.04 1022.30 1022.48 1022.52 1022.51 1022.38 1021.80 1020.71 1019.76 1019.75 1018.55 1016.30 1015.26 1014.93 1014.53 1014.11 1013.78 1013.50 1013.21 1012.88
1015.54 1015.45 1015.44 1015.16 1015.25 1015.31 1016.01 1016.80 1017.16 1017.26 1017.92 1018.60 1018.68 1018.87 1019.26 1019.10 1019.24 1019.32 1019.23 1019.72 1020.45 1021.16 1021.49 1021.69 1021.85 1021.92 1022.09 1022.21 1022.36 1022.12 1021.95 1021.23 1020.87 1019.57 1018.62 1018.23 1016.12 1015.18 1014.77 1014.54 1014.18 1013.74 1013.30 1012.96 1012.45
1016.28 1015.80 1015.73 1015.58 1015.72 1016.56 1017.15 1017.50 1017.38 1017.52 1018.28 1019.83 1019.34 1019.74 1019.62 1019.44 1019.84 1019.71 1019.73 1020.09 1020.66 1021.19 1021.63 1021.81 1021.63 1021.75 1021.83 1021.85 1021.86 1021.46 1020.45 1020.44 1020.29 1019.90 1019.02 1018.26 1017.24 1015.69 1015.31 1014.58 1014.05 1013.27 1012.75 1012.15 1011.77
1016.84 1016.22 1016.02 1015.91 1016.78 1017.15 1017.89 1017.52 1017.36 1017.59 1018.87 1020.85 1019.97 1019.63 1019.40 1019.60 1020.23 1020.10 1019.95 1020.06 1020.77 1021.31 1021.95 1021.76 1021.40 1021.30 1021.23 1020.91 1020.95 1020.37 1019.93 1019.92 1019.78 1019.53 1018.87 1017.79 1018.09 1015.38 1015.17 1014.74 1014.35 1013.45 1012.63 1012.10 1011.55
1017.11 1016.81 1016.45 1016.57 1017.15 1017.49 1017.32 1017.12 1017.20 1018.03 1020.63 1021.21 1020.50 1020.10 1020.07 1020.18 1020.39 1020.44 1020.36 1020.54 1021.01 1021.36 1021.62 1021.66 1021.12 1020.80 1020.48 1020.24 1020.25 1019.78 1019.57 1019.18 1019.05 1018.67 1018.17 1017.07 1017.47 1015.87 1015.90 1015.83 1014.74 1013.51 1012.61 1012.10 1011.61
1017.30 1017.13 1016.92 1017.26 1017.47 1017.33 1017.18 1017.39 1017.97 1020.07 1022.25 1021.89 1021.20 1020.73 1020.64 1021.00 1021.14 1021.18 1021.17 1021.20 1021.34 1021.84 1021.95 1021.60 1020.95 1020.31 1020.11 1019.88 1019.44 1019.57 1019.24 1019.07 1018.81 1018.39 1017.38 1016.78 1017.02 1016.37 1016.28 1015.69 1014.76 1013.27 1013.00 1012.44 1011.89
1017.60 1017.29 1017.46 1017.29 1017.17 1017.08 1017.35 1017.84 1019.68 1021.77 1021.79 1021.73 1021.49 1021.25 1021.19 1021.22 1021.46 1021.41 1021.41 1021.36 1021.33 1021.71 1021.98 1021.31 1020.43 1019.66 1019.31 1019.00 1018.76 1018.75 1018.81 1019.08 1018.77 1018.14 1017.15 1016.64 1016.61 1016.61 1016.43 1016.01 1015.05 1014.18 1013.66 1012.98 1012.28
1017.80 1017.92 1017.75 1017.44 1017.15 1017.42 1017.97 1019.47 1021.66 1021.81 1021.65 1021.41 1021.34 1021.28 1021.25 1021.11 1021.12 1021.24 1021.22 1021.07 1020.81 1021.24 1021.44 1020.89 1020.03 1019.13 1018.75 1018.38 1018.32 1018.24 1018.45 1018.31 1018.15 1017.48 1017.19 1016.36 1016.37 1016.47 1016.49 1016.26 1015.62 1015.10 1014.25 1013.59 1012.88
1018.30 1018.44 1017.78 1017.10 1017.20 1017.49 1018.06 1020.78 1021.63 1021.54 1021.30 1021.09 1020.88 1020.83 1021.06 1021.03 1021.01 1020.98 1020.96 1020.66 1020.52 1020.57 1020.70 1020.58 1020.01 1018.88 1018.46 1018.24 1018.10 1018.06 1018.25 1018.10 1017.91 1017.44 1016.77 1016.15 1016.69 1017.08 1017.14 1016.87 1016.45 1015.62 1015.09 1014.27 1013.67
1018.37 1018.40 1017.51 1017.06 1017.02 1018.63 1020.35 1021.67 1021.58 1020.98 1020.69 1020.42 1020.44 1020.56 1020.82 1020.87 1021.06 1021.18 1021.05 1020.43 1019.86 1019.96 1020.08 1020.19 1020.26 1019.09 1018.58 1018.06 1017.85 1018.00 1018.02 1017.90 1017.75 1017.50 1017.35 1017.09 1017.26 1017.45 1017.39 1017.33 1016.88 1016.21 1015.66 1015.21 1014.57
1018.69 1019.20 1017.38 1016.99 1018.54 1021.09 1022.11 1021.85 1021.28 1020.85 1020.45 1020.17 1020.14 1019.91 1020.02 1020.44 1020.53 1020.41 1020.29 1019.85 1019.45 1019.42 1019.64 1019.71 1019.79 1019.25 1018.10 1017.66 1017.42 1017.66 1017.82 1017.80 1017.74 1017.51 1017.48 1017.58 1017.67 1017.39 1017.31 1017.23 1016.92 1016.35 1015.81 1015.41 1015.05
1020.20 1019.87 1018.17 1017.84 1020.81 1022.24 1022.21 1021.92 1021.33 1020.61 1020.32 1020.01 1019.79 1019.58 1019.54 1019.82 1020.10 1019.98 1019.70 1019.06 1019.11 1019.25 1019.30 1019.48 1019.82 1019.61 1018.41 1018.11 1017.73 1017.69 1017.47 1017.38 1017.48 1017.58 1017.20 1017.25 1017.54 1017.34 1017.18 1017.02 1016.57 1016.58 1016.30 1016.00 1015.68
1020.84 1021.40 1020.89 1021.08 1022.13 1022.21 1022.41 1022.13 1021.40 1020.67 1020.33 1019.96 1019.89 1019.61 1019.61 1019.86 1019.87 1019.90 1019.65 1019.17 1019.13 1019.25 1019.31 1019.53 1019.86 1019.79 1019.37 1018.45 1018.04 1017.74 1017.37 1017.00 1017.34 1017.32 1016.87 1016.76 1016.99 1017.25 1016.76 1016.68 1016.62 1016.64 1016.65 1016.61 1016.54
1021.40 1022.97 1023.22 1023.33 1023.17 1022.51 1022.17 1022.01 1021.69 1021.09 1020.55 1020.38 1020.11 1020.14 1020.13 1020.15 1020.12 1020.26 1020.02 1019.65 1019.36 1019.44 1019.59 1019.94 1020.09 1019.81 1018.99 1018.40 1018.09 1017.50 1017.05 1016.79 1016.80 1016.38 1016.42 1016.18 1016.39 1016.19 1016.25 1016.35 1016.56 1016.58 1016.71 1016.87 1016.97
1021.91 1022.60 1023.21 1023.25 1023.57 1022.82 1022.31 1021.97 1021.59 1021.16 1020.90 1020.64 1020.60 1020.49 1020.13 1020.09 1020.06 1020.17 1020.16 1020.15 1019.89 1019.63 1019.86 1020.18 1020.13 1019.88 1018.90 1018.10 1017.88 1017.21 1016.41 1016.17 1016.21 1016.03 1015.99 1015.85 1015.95 1015.35 1015.52 1015.80 1016.22 1016.41 1016.67 1016.89 1017.01
1022.08 1022.16 1022.18 1023.35 1023.21 1023.36 1022.44 1021.86 1021.50 1021.19 1020.85 1020.69 1020.66 1020.45 1020.13 1019.98 1019.91 1019.77 1019.81 1019.85 1019.85 1020.08 1020.00 1020.14 1020.19 1020.23 1019.25 1018.23 1017.30 1016.65 1015.16 1015.29 1015.19 1015.09 1015.25 1015.42 1014.80 1015.03 1015.46 1015.61 1015.64 1015.97 1016.29 1016.60 1016.91
Wind_Speed
22 12 10 11 7 6 3 5 7 7 4 4 7 7 15 14 12 4 2 3 4 10 6 3 6 4 5 4 4 1 4 3 4 6 2 3 4 2 3 3 4 3 3 4 6
16 9 6 10 6 7 7 8 7 5 3 5 7 10 13 15 5 4 3 5 10 10 4 6 4 5 5 3 3 4 3 7 2 2 2 3 1 4 3 1 4 6 8 10 7
15 15 9 13 8 6 7 9 8 4 2 4 4 10 16 5 3 1 7 9 10 8 4 3 5 5 5 3 3 1 3 1 0 0 4 4 4 2 3 6 11 9 8 6 8
8 8 13 14 12 4 4 8 9 4 3 2 4 8 11 3 6 1 6 11 13 9 4 4 4 5 4 4 1 3 1 0 2 1 4 4 4 6 10 13 9 9 7 10 14
10 5 7 9 6 8 7 4 6 7 2 3 3 19 8 6 1 7 7 17 7 5 4 4 5 4 6 5 3 2 1 3 4 7 7 7 13 10 9 19 13 14 12 14 15
15 15 12 8 6 9 6 3 2 4 4 4 7 11 5 7 5 7 7 9 7 6 4 4 4 4 7 3 3 2 2 6 6 5 5 6 6 1 10 5 10 9 13 13 14
18 18 15 5 6 8 7 7 7 5 6 8 11 3 7 8 4 7 4 4 3 4 6 3 5 5 4 4 1 1 4 5 2 2 3 3 7 10 15 4 11 13 12 13 14
17 22 17 6 8 12 8 5 3 4 5 5 9 2 6 4 6 1 11 7 7 8 7 6 7 7 4 4 4 3 3 4 1 3 2 2 7 6 3 5 11 13 13 16 18
21 20 17 13 8 9 11 14 8 10 10 16 8 5 5 2 8 3 4 8 5 6 6 4 4 4 3 4 3 6 1 3 8 3 2 1 10 7 14 19 20 15 17 17 16
19 19 10 13 12 14 16 21 20 12 10 9 6 6 3 5 3 4 4 7 7 4 5 6 5 3 3 3 3 2 2 2 6 4 4 12 24 17 17 18 20 18 16 16 16
19 20 21 11 11 8 3 3 6 8 7 4 7 9 5 6 2 4 4 7 4 6 3 3 5 2 3 3 4 1 2 6 6 9 5 8 20 20 18 15 18 16 13 14 16
18 17 16 20 15 8 4 6 4 4 11 19 19 18 9 0 12 4 3 4 3 4 2 5 1 3 2 3 2 1 3 6 9 6 5 11 24 22 16 11 7 9 10 10 10
17 20 11 14 14 12 13 9 2 2 6 8 10 9 5 6 6 2 3 2 4 3 1 3 3 6 2 1 1 3 4 4 7 6 10 7 11 5 3 4 5 7 9 11 11
18 17 18 3 8 2 5 6 4 2 5 8 7 6 1 7 5 1 2 2 2 3 3 2 1 3 2 3 6 4 8 11 9 7 4 2 8 5 5 9 9 16 15 14 13
18 17 17 14 2 4 3 4 4 0 8 11 6 3 6 5 6 3 3 5 3 2 4 3 2 3 2 5 7 7 1 5 6 11 8 3 6 6 7 13 19 21 17 11 10
12 12 6 5 3 2 5 2 3 9 9 5 2 4 4 5 3 3 4 5 1 2 1 5 2 3 6 3 7 4 6 6 5 4 4 4 6 3 6 10 17 17 7 7 12
12 8 6 2 2 3 2 4 8 9 2 5 3 4 4 3 3 2 1 2 2 4 3 3 4 3 4 2 1 3 4 4 5 2 6 4 4 3 12 16 16 10 12 10 12
12 6 4 1 5 1 4 8 13 4 4 2 1 2 3 1 1 1 1 2 3 3 1 3 6 3 4 5 3 2 1 2 4 2 5 2 4 2 13 14 17 14 13 13 13
9 3 2 4 3 2 6 11 4 2 2 1 2 3 3 1 3 1 1 2 1 5 2 4 5 1 4 2 1 2 3 0 4 4 4 2 1 2 14 14 15 17 15 15 16
3 3 4 7 2 3 6 9 4 2 3 2 3 2 3 4 4 4 3 1 2 5 4 2 5 3 2 1 3 4 2 2 2 4 4 2 2 6 12 13 13 12 14 17 16
3 4 4 7 3 8 8 4 0 2 2 2 1 2 3 1 2 1 2 4 2 4 4 1 1 5 2 5 4 2 2 3 3 2 2 5 3 3 7 7 10 12 12 12 13
2 5 5 4 8 3 3 2 1 2 2 1 2 3 5 6 2 3 2 5 4 4 3 5 2 4 6 2 3 2 5 3 2 1 1 1 2 7 7 5 8 10 11 10 10
4 1 4 3 5 3 3 3 2 5 3 1 1 2 1 3 2 3 3 3 7 5 4 4 1 4 4 4 1 3 3 4 1 1 4 2 2 3 6 6 6 5 6 8 10
4 4 6 6 2 6 2 3 3 3 0 2 3 3 3 3 3 2 4 1 4 4 4 3 2 5 5 5 1 4 3 4 5 2 2 4 7 9 11 8 3 1 1 3 5
4 1 3 2 3 3 2 0 3 5 3 5 3 3 1 4 3 4 2 5 1 3 1 2 4 3 7 8 3 5 6 5 7 5 4 5 9 7 8 5 5 4 1 2 3
3 4 2 3 4 1 2 1 1 1 0 4 3 4 3 3 5 4 1 3 2 4 2 1 3 1 5 4 5 6 6 5 6 2 2 6 5 6 4 4 4 6 5 4 3
0 2 4 2 2 1 3 5 4 1 2 1 2 1 2 3 6 8 5 3 3 2 2 1 1 4 6 5 7 6 9 8 4 4 6 6 9 6 6 8 9 7 6 6 6
Wind_Direction
304 281 268 249 195 186 232 304 331 353 25 83 323 316 165 151 135 123 204 199 185 152 112 112 51 59 52 67 41 95 80 189 204 173 284 11 19 26 330 295 319 283 254 281 313
347 308 309 290 233 225 217 227 232 280 343 19 12 327 166 138 112 147 215 179 169 132 96 114 91 71 57 62 36 79 141 207 186 188 288 313 210 350 331 267 269 294 283 287 314
5 8 2 333 353 306 277 238 222 245 344 332 48 313 141 123 117 28 202 169 147 115 84 99 98 77 75 53 20 114 167 200 154 283 15 310 300 263 240 255 224 228 255 291 313
335 10 333 309 303 321 275 234 222 200 309 329 28 134 108 125 149 36 192 185 118 117 87 99 55 73 89 100 27 113 59 311 298 21 336 299 296 273 226 251 240 235 256 288 283
357 349 264 315 357 350 323 290 228 183 167 356 343 136 96 78 27 327 174 112 90 77 80 99 62 102 109 106 98 88 14 317 283 287 264 249 252 252 256 257 263 265 263 257 262
27 14 352 353 9 344 352 319 91 147 91 24 77 155 140 129 332 9 100 73 80 81 70 60 131 119 102 98 95 168 272 274 276 267 253 263 272 134 257 264 267 260 259 251 244
16 7 7 347 28 32 70 99 126 138 95 75 99 343 60 105 13 31 286 66 69 102 90 61 119 75 128 99 118 82 343 322 240 330 264 192 265 230 254 294 277 278 269 264 250
19 18 19 39 81 49 60 89 183 173 125 98 126 38 65 28 64 265 89 73 62 59 82 91 94 97 82 129 38 52 57 14 358 334 320 104 263 277 282 282 268 280 283 273 277
19 25 37 65 69 47 68 86 108 121 102 117 72 62 103 113 121 301 31 103 85 58 66 80 67 98 70 80 49 19 49 11 316 339 295 217 282 269 303 295 285 275 269 275 279
26 26 49 37 54 61 84 89 78 67 64 74 61 86 306 92 81 34 45 68 85 68 43 43 47 61 47 63 202 122 46 279 255 282 281 279 273 278 273 274 278 274 272 273 274
28 31 68 72 58 48 37 42 27 30 24 85 118 110 84 96 178 46 29 65 51 49 78 40 70 124 191 138 135 129 237 255 270 268 293 271 277 287 282 277 275 274 273 278 274
37 32 58 63 56 51 52 71 43 118 61 57 70 75 77 132 110 32 41 80 52 85 53 32 87 209 142 138 159 246 306 284 280 274 202 277 287 291 285 268 273 282 286 291 289
41 34 31 69 56 52 66 65 99 354 75 32 53 52 47 45 86 73 34 88 100 84 87 123 144 128 132 166 198 233 213 240 237 283 253 293 282 289 299 288 293 285 277 287 281
27 47 33 120 48 7 51 345 333 335 82 28 33 20 103 180 66 332 39 111 58 140 160 239 192 203 163 234 171 270 211 243 264 311 296 76 293 265 315 325 325 321 312 302 294
17 31 57 51 61 45 322 310 290 150 70 348 20 245 317 70 139 5 341 28 96 107 86 266 175 188 211 223 172 242 183 252 261 262 276 239 241 268 348 337 328 314 308 309 300
359 11 31 40 58 178 302 288 57 43 54 28 22 349 55 24 36 34 33 42 66 36 31 257 299 229 219 246 202 288 298 271 226 225 243 214 192 295 2 325 313 301 319 6 2
348 6 33 353 303 345 339 36 49 56 304 340 12 2 56 42 57 59 40 355 97 61 357 301 221 243 181 251 254 179 273 337 2 197 235 189 227 307 349 338 322 356 12 357 12
332 13 8 106 309 314 56 47 62 39 65 245 317 324 77 119 39 81 135 335 193 145 132 32 335 187 180 206 245 254 138 167 268 282 287 200 238 351 353 353 341 19 5 1 349
341 338 358 321 325 81 76 56 65 75 220 144 316 63 10 53 126 56 160 286 0 178 108 337 287 279 210 237 171 61 212 270 263 225 265 236 287 191 4 355 1 8 5 359 5
66 359 308 332 77 73 76 91 94 152 189 185 107 75 51 354 28 31 6 232 232 179 207 342 295 234 308 164 228 209 1 244 219 311 305 330 66 311 349 340 347 2 12 359 5
62 63 266 335 81 47 64 99 313 276 209 139 125 106 88 111 53 82 278 280 255 155 174 109 30 300 351 210 178 172 258 232 283 292 305 321 348 296 312 325 344 356 357 0 358
67 49 308 14 56 38 38 336 327 281 207 189 233 196 167 164 144 175 211 223 209 180 188 191 233 266 244 52 173 177 202 216 236 261 219 244 350 350 340 344 346 330 348 3 15
60 269 317 64 87 2 328 348 281 7 28 27 53 26 46 179 110 219 219 240 177 173 190 182 272 311 6 27 78 228 212 225 174 17 221 169 149 273 272 281 292 325 1 7 14
80 39 343 43 38 117 81 4 9 338 2 347 16 42 45 50 15 358 343 325 193 208 219 166 196 197 195 231 182 284 251 258 179 181 172 216 165 217 249 266 273 280 10 21 28
29 126 157 302 6 96 126 70 7 7 359 17 36 61 239 35 18 4 327 327 179 343 142 156 251 184 249 243 235 245 250 226 194 234 184 186 178 219 224 228 224 242 247 102 59
108 128 16 100 337 111 2 164 357 313 23 352 77 317 355 147 175 234 156 204 239 325 125 316 269 306 284 159 233 253 224 204 220 195 213 145 237 210 188 190 207 214 206 197 179
173 12 98 313 115 359 223 192 187 155 218 209 259 275 266 240 217 235 226 259 203 194 238 120 29 23 271 344 308 291 208 193 205 199 152 171 225 165 187 209 218 212 210 205 193